Location: La B�doule
(43.2468°N, 5.5934°E)
Time: 11:57:03
(UTC+00:00)

deb Chang Zheng 4 - Pass Details

Date: 07 June 2020
Orbit: 602 x 628 km, 98.6° (Epoch: 11 July)

Event Time Altitude Azimuth Distance (km) Brightness Sun altitude
Rises 03:15:10 0° 18° (NNE) 2,887 8.1 -7.1°
Reaches altitude 10° 03:17:24 10° 23° (NNE) 1,974 7.3 -6.8°
Maximum altitude 03:21:36 54° 101° (E) 739 4.3 -6.2°
Drops below altitude 10° 03:25:45 10° 179° (S) 1,946 5.8 -5.6°
Sets 03:27:56 0° 184° (S) 2,842 6.6 -5.3°
